Location: Baumgartsau
(48.4586°N, 14.0864°E)
Time: 05:01:27
(UTC+00:00)

Cosmos 2360 Rocket - Pass Details

Date: 09 April 2020
Orbit: 834 x 845 km, 71.0° (Epoch: 01 June)

Event Time Altitude Azimuth Distance (km) Brightness Sun altitude
Rises 21:29:46 0° 336° (NNW) 3,394 6.5 -29.8°
Reaches altitude 10° 21:32:38 10° 349° (N) 2,457 5.5 -30.0°
Maximum altitude 21:37:18 26° 45° (NE) 1,597 3.7 -30.3°
Enters shadow 21:37:50 26° 54° (NE) 1,610 3.7 -30.4°
